Regional Weather Roundup
Issued by NWS

Home | Current Version | Previous Version | Graphics & Text | Print | Product List | Glossary On
Versions: 1 2 3 4 5 6 7 8 9 10 11 12 13 14 15 16 17 18 19 20 21 22 23 24 25 26 27 28 29 30 31 32 33 34 35 36 37 38 39 40 41 42 43 44 45 46 47 48 49 50
950
ASUS45 KCYS 070910
RWRWY

WYOMING REGIONAL WEATHER ROUNDUP
NATIONAL WEATHER SERVICE CHEYENNE WY
200 AM MST WED DEC 07 2016

NOTE:  "FAIR" INDICATES FEW OR NO CLOUDS BELOW 12,000 FEET
WITH NO SIGNIFICANT WEATHER AND/OR OBSTRUCTIONS TO VISIBILITY.

WYZ001-071000-
YELLOWSTONE NATIONAL PARK

CITY           SKY/WX    TMP DP  RH WIND       PRES   REMARKS
LK YELLOWSTONE   N/A     -5  -9  83 CALM      29.85R
W YELLOWSTONE  NOT AVBL

$$
WYZ002>013-054>058-071-098>099-071000-
NORTHERN WYOMING

CITY           SKY/WX    TMP DP  RH WIND       PRES   REMARKS
JACKSON        FAIR      -8  -9  92 N6        29.92R WCI -21
CODY           LGT SNOW   4   0  83 NE9       30.09R FOG     WCI -10
GREYBULL       CLOUDY     9   2  73 N3        30.14R
WORLAND        CLOUDY    10   3  73 N14       30.12R WCI  -6
SHERIDAN       FAIR       0  -6  76 W13       30.21R WCI -18
BUFFALO        MIX PCPN   2  -5  72 N21G28    30.09R WCI -20
GILLETTE       CLOUDY     2  -2  83 NW8       30.13R WCI -12
HULETT         FLURRIES   3  -2  78 W5        30.15R WCI  -6
NEWCASTLE      FAIR       0  -6  78 NW12      30.12R WCI -18

$$
WYZ014>020-022>026-101>103-071000-
CENTRAL WYOMING

CITY           SKY/WX    TMP DP  RH WIND       PRES   REMARKS
BIG PINEY      CLOUDY     0  -3  87 SW5       29.87R WCI -10
PINEDALE       LGT SNOW   5   3  92 N13       29.87R WCI -12
DUBOIS         LGT SNOW   3   0  85 S3        29.87R
LANDER         LGT SNOW   7   3  84 NE3       30.00R FOG
RIVERTON       FLURRIES   5   1  83 CALM      30.02R
CASPER         LGT SNOW   1  -4  79 NE8       30.05R WCI -13
DOUGLAS        CLOUDY     1  -4  79 N7        30.08R WCI -12

$$
WYZ021-027>030-104>119-071000-
SOUTHERN WYOMING

CITY           SKY/WX    TMP DP  RH WIND       PRES   REMARKS
EVANSTON       MOCLDY     6   0  76 W7        29.88R WCI  -6
FORT BRIDGER   PTSUNNY   10   4  78 W13       29.90R WCI  -6
ROCK SPRINGS   LGT SNOW   7   4  87 E6        29.88R FOG     WCI  -3
DIXON          CLOUDY    12   3  66 W3        29.90R
RAWLINS        CLOUDY     3  -3  76 NW3       29.88R
SARATOGA       FLURRIES   5   3  92 NW6       29.85R WCI  -6
LARAMIE        LGT SNOW   9   1  70 SE13      29.78R WCI  -7
CHEYENNE       LGT SNOW   6   2  83 N10       29.90R FOG     WCI  -9
TORRINGTON     LGT SNOW   9   3  77 N12       30.07R WCI  -6
PINE BLUFFS    CLOUDY    12  10  92 NE16G26   29.98R WCI  -4

$$




USA.gov is the U.S. government's official web portal to all federal, state and local government web resources and services.